FALCON 9 R/B, 52934

Orbit data source: Space-Track

FALCON 9 R/B, 52934 is space debris in HEO originally from a launch on Wed, 29 Jun 2022 UTC launched from the Air Force Eastern Test Range (AFETR). Debris objects in space refer to the collection of defunct objects orbiting the Earth. Examples of debris include non-operational satellites, rocket bodies, and fragments generated from explosions, collisions, or faulty payload assembly.

Loading next visibility...
Identifier
52934, 2022-071B
Orbit
HEO
Country
Flag of USUS
Related business
Manufacturer
SpaceX
Mission
Spacecraft
Bus & Motor
F9ST2, Unknown motor
Mass
~4,000 kg wet, ~4,000 kg dry
Launch date (UTC)
2022-06-29 (3 years ago)
Launch vehicle
Unknown
Launch site
Air Force Eastern Test Range (AFETR)
Object type
Payload
Rocket body
Debris
Shape & HBR
Cyl, 7.8 m
Radar Cross Section
39.980 m², Large (>1 m²)

Expand to show TLE details & history
Last TLE update: 9 hours ago

TLE from 9 hours ago
0 FALCON 9 R/B
1 52934U 22071B   25312.00540669  .00001006  00000-0  10091-2 0  9998
2 52934  16.4758 297.2262 7204854  16.5338 358.1066  2.33782589 28390
Epoch: 2025-11-08T00:07Z
TLE epoch observation values (Epoch: 2025-11-08T00:07:47.138Z)
Latitude
0.00064°
Longitude
-112.17731°
Altitude
467.978 km
Speed
9.991 km/s
True Right ascension
19h 48m 50s
True Declination
0° 00' 02"
Sunlit
Object was in daylight at epoch
Visualization orbit readout
Latitude
Unknown
Longitude
Unknown
Altitude
Unknown
Speed
Unknown
Apparent Right ascension
Unknown
Apparent Declination
Unknown
Sunlit
N/A
Visualization observer readout
Local Sidereal Time
05:47:37
Azimuth
Unknown
Elevation
Unknown
Doppler factor
Unknown
Orbital elements
Apogee altitude
34,888.527 km
Perigee altitude
326.154 km
Semi-major axis
23,985.478 km
Eccentricity
0.72049
Inclination
16.4758°
RAAN
297.2262°
Arg. of periapsis
16.5338°
True anomaly
343.39123°
Mean anomaly
358.1066°
Eccentric anomaly
353.26605°
Mean motion
0.58428 °/min
Orbital period
616.14 mins
BSTAR
0.0010091
Loading maneuver chart data...
Computing Atmospheric mass density...
Loading historical data...
Loading historical data...
Loading historical data...
Loading historical data...
Loading historical data...
Loading historical data...
Loading historical data...
Other satellites on launch #71 in the year 2022 (2022-06-29 UTC)

Documentation

Showing up to 5 results
|